Location: Dover
(48.8500°N, 53.9833°W)
Time: 06:15:51
(UTC+00:00)

ISS - Pass Details

Date: 14 November 2025
Orbit: 416 x 420 km, 51.6° (Epoch: 12 December)

Event Time Altitude Azimuth Distance (km) Brightness Sun altitude
Rises 20:57:38 0° 200° (SSW) 2,358 0.6 -10.2°
Reaches altitude 10° 21:00:16 10° 178° (S) 1,496 -0.8 -10.6°
Maximum altitude 21:02:26 16° 138° (SE) 1,177 -1.7 -10.9°
Enters shadow 21:03:52 13° 109° (ESE) 1,327 -1.7 -11.1°
